Accueil
METAR-TAF:

METAR-TAF

Aéroports :

Troyes, France

Aéroport de Troyes - Barberey

latitude: 48-20N, longitude: 004-01E, altitude: 118 m

Observation

Le bulletin a été fait il y a 37 minutes, à 03:00 UTC
Vent 4 kt de sud/sud-est
Température 9°C
Humidité 93%
Pression 1011 hPa
Visibilité: 7000 m

METAR: LFQB 190300Z AUTO 16004KT 7000 NSC 09/08 Q1011

Heure: 05:37 (03:37 UTC)


TAF: absent

Observations et prévisions météorologiques de plus de 4000 aéroports (messages METAR et TAF).

Les stations disponibles sont représentées par des disques jaunes et rouges sur la carte.

Passer la souris dessus pour voir le nom de la station.

Cliquer dessus pour voir les observations et prévisions météorologiques.

Pour changer de carte: cliquez sur les boutons verts avec une croix noire pour zoomer, sur le bouton vert avec un tiret pour effectuer un zoom arrière, ou sur les flèches vertes pour les cartes adjacentes.


METAR-TAF: